Hoonah, AK

5:34 AM AKST on January 18, 2017 (GMT -0900)
Hoonah

Weather History for PAOH - March, 2013

Change the Weather History Date:

Monday, March 25, 2013

  Actual Average Record
Temperature  
Mean Temperature 38 °F -  
Max Temperature 44 °F 38 °F 48 °F (2016)
Min Temperature 33 °F 27 °F 21 °F (2009)
Degree Days  
Heating Degree Days 26    
Moisture  
Dew Point 37 °F    
Average Humidity 94    
Maximum Humidity 100    
Minimum Humidity 57    
Precipitation  
Precipitation 0.12 in - - ()
Sea Level Pressure  
Sea Level Pressure 29.76 in    
Wind  
Wind Speed 7 mph (ENE)    
Max Wind Speed 12 mph    
Max Gust Speed 18 mph    
Visibility 9 miles    
Events Rain    
Averages and records for this station are not official NWS values.
T = Trace of Precipitation, MM = Missing Value Source: NWS Daily Summary

Daily Weather History Graph

Daily Weather History Graph

Search for Another Location

Airport or City:

Trip Planner

Search our weather history database for the weather conditions in past years. The results will help you decide how hot, cold, wet, or windy it might be!

Date:

Astronomy

Mar. 25, 2013 Rise Set
Actual Time 6:48 AM AKDT 7:28 PM AKDT
Civil Twilight 6:08 AM AKDT 8:07 PM AKDT
Nautical Twilight 5:20 AM AKDT 8:56 PM AKDT
Astronomical Twilight 4:27 AM AKDT 9:49 PM AKDT
Moon 5:58 PM AKDT (3/25) 5:51 AM AKDT (3/25)
Length of Visible Light 13h 59m
Length of Day
12h 40m
Waxing Gibbous, 97% of the Moon is Illuminated
Mar 25
Waxing Gibbous
Mar 27
Full
Apr 2
Last Quarter
Apr 10
New
Apr 18
First Quarter

Hourly Weather History & Observations

Time (AKDT) Temp. Windchill Dew Point Humidity Pressure Visibility Wind Dir Wind Speed Gust Speed Precip Events Conditions
12:56 AM 37.4 °F 30.8 °F 37.4 °F 100% 29.80 in 6.0 mi East 9.2 mph - N/A Rain Light Rain
1:56 AM 36.9 °F 30.7 °F 36.9 °F 100% 29.78 in 6.0 mi East 8.1 mph - 0.04 in Rain Light Rain
2:56 AM 37.9 °F 31.5 °F 37.9 °F 100% 29.76 in 6.0 mi ENE 9.2 mph - 0.06 in Rain Light Rain
3:56 AM 37.4 °F 29.8 °F 37.4 °F 100% 29.73 in 8.0 mi ENE 11.5 mph 18.4 mph N/A Rain Light Rain
4:56 AM 37.9 °F 31.5 °F 37.9 °F 100% 29.72 in 10.0 mi East 9.2 mph 17.3 mph 0.00 in Rain Light Rain
5:56 AM 38.8 °F 32.6 °F 38.8 °F 100% 29.70 in 10.0 mi East 9.2 mph - 0.00 in   Overcast
6:56 AM 39.2 °F 32.0 °F 39.2 °F 100% 29.68 in 10.0 mi East 11.5 mph - N/A   Overcast
7:56 AM 39.9 °F 33.4 °F 39.9 °F 100% 29.69 in 6.0 mi East 10.4 mph - 0.00 in Rain Light Rain
8:26 AM 39.2 °F 34.2 °F 39.2 °F 100% 29.68 in 9.0 mi Variable 6.9 mph - 0.00 in Rain Light Rain
8:56 AM 41.0 °F 35.8 °F 39.9 °F 96% 29.70 in 10.0 mi East 8.1 mph - 0.00 in   Overcast
9:13 AM 42.8 °F 38.6 °F 39.2 °F 87% 29.69 in 10.0 mi East 6.9 mph - N/A   Overcast
9:56 AM 43.9 °F 41.3 °F 41.0 °F 90% 29.70 in 10.0 mi East 4.6 mph - 0.00 in Rain Light Rain
10:26 AM 42.8 °F 40.1 °F 41.0 °F 93% 29.70 in 10.0 mi East 4.6 mph - 0.00 in Rain Light Rain
10:56 AM 41.9 °F 38.2 °F 41.0 °F 97% 29.73 in 8.0 mi West 5.8 mph - 0.01 in Rain Light Rain
11:20 AM 42.8 °F 38.6 °F 41.0 °F 93% 29.73 in 9.0 mi Variable 6.9 mph - 0.01 in Rain Light Rain
11:56 AM 41.9 °F 39.0 °F 41.0 °F 97% 29.75 in 10.0 mi Variable 4.6 mph - 0.01 in Rain Light Rain
12:31 PM 42.8 °F 41.1 °F 42.8 °F 100% 29.74 in 10.0 mi NW 3.5 mph - 0.00 in Rain Light Rain
12:56 PM 42.8 °F 38.6 °F 39.2 °F 87% 29.75 in 10.0 mi Variable 6.9 mph - N/A Rain Light Rain
1:56 PM 43.9 °F 40.5 °F 36.9 °F 76% 29.77 in 10.0 mi Variable 5.8 mph - 0.00 in Rain Light Rain
2:56 PM 43.0 °F 38.8 °F 32.0 °F 65% 29.77 in 10.0 mi Variable 6.9 mph - 0.00 in   Clear
3:56 PM 44.6 °F 39.7 °F 30.2 °F 57% 29.76 in 10.0 mi South 9.2 mph - N/A   Partly Cloudy
4:56 PM 41.9 °F 35.9 °F 34.0 °F 73% 29.79 in 10.0 mi West 10.4 mph 18.4 mph N/A   Mostly Cloudy
5:08 PM 39.2 °F 35.9 °F 35.6 °F 87% 29.79 in 5.0 mi WSW 4.6 mph - 0.00 in Rain Light Rain
5:56 PM 37.9 °F 34.4 °F 36.9 °F 96% 29.80 in 5.0 mi Variable 4.6 mph - 0.00 in Rain Light Rain
6:18 PM 37.4 °F 34.9 °F 37.4 °F 100% 29.79 in 10.0 mi ENE 3.5 mph - 0.00 in   Mostly Cloudy
6:56 PM 37.4 °F 34.9 °F 37.4 °F 100% 29.80 in 10.0 mi SW 3.5 mph - N/A Rain Light Rain
7:37 PM 35.6 °F 32.8 °F 35.6 °F 100% 29.81 in 10.0 mi East 3.5 mph - 0.00 in   Scattered Clouds
7:56 PM 34.9 °F 32.0 °F 34.9 °F 100% 29.82 in 10.0 mi NNW 3.5 mph - 0.00 in   Mostly Cloudy
8:56 PM 34.0 °F - 34.0 °F 100% 29.84 in 10.0 mi Calm Calm - 0.00 in   Mostly Cloudy
9:56 PM 33.8 °F 30.8 °F 33.8 °F 100% 29.84 in 10.0 mi North 3.5 mph - N/A   Scattered Clouds
10:56 PM 34.9 °F 32.0 °F 34.9 °F 100% 29.86 in 10.0 mi Variable 3.5 mph - 0.00 in   Mostly Cloudy
11:21 PM 33.8 °F 29.6 °F 33.8 °F 100% 29.85 in 10.0 mi East 4.6 mph - 0.00 in   Mostly Cloudy
11:56 PM 34.0 °F 29.8 °F 34.0 °F 100% 29.87 in 10.0 mi Variable 4.6 mph - 0.00 in   Mostly Cloudy